This demonstration page uses our WeatherBlox Daily Observations layout. Learn more.

Left ArrowRight Arrow

39.51506, -84.39828

Hourly Observations for May 14, 2018

Temp ( °F °C ) Dew Point ( °F °C ) Humidity (%) Winds ( mph kmh ) Pressure ( in mb ) Visibility ( mi km ) Precip ( " mm )
12:15 am 00:15 Clear with Mist and Fog 68 20.1 67 19.6 97 97 WSW 6 9 29.91 1013 7 11 0.00 0.00
12:35 am 00:35 Clear 68 20.2 67 19.5 96 96 W 3 6 29.94 1014 7 11 0.00 0.00
12:55 am 00:55 Clear with Mist and Fog 68 20.1 67 19.7 98 98 Calm 29.94 1014 7 11 0.00 0.00
1:15 am 01:15 Clear with Mist and Fog 67 19.4 66 19.1 98 98 NNE 3 6 29.94 1014 3 5 0.00 0.00
1:35 am 01:35 Mostly Cloudy with Mist and Fog 67 19.2 66 18.9 98 98 N 5 7 29.94 1014 1 2 0.00 0.00
1:55 am 01:55 Mostly Cloudy with Mist and Fog 66 18.8 65 18.6 99 99 Calm 29.94 1014 1 2 0.00 0.00
2:15 am 02:15 Mostly Cloudy with Mist and Fog 65 18.6 65 18.4 99 99 NNE 7 11 29.97 1015 2 2 0.00 0.00
2:35 am 02:35 Clear with Mist and Fog 66 19.1 66 18.9 99 99 N 3 6 29.97 1015 4 6 0.00 0.00
2:55 am 02:55 Clear with Mist and Fog 66 18.8 65 18.6 99 99 Calm 29.97 1015 4 6 0.00 0.00
3:15 am 03:15 Mostly Cloudy with Mist and Fog 65 18.6 65 18.4 99 99 Calm 29.97 1015 2 3 0.00 0.00
3:35 am 03:35 Mostly Cloudy with Fog 65 18.3 65 18.2 99 99 Calm 29.97 1015 0 0 0.00 0.00
3:55 am 03:55 Mostly Cloudy with Fog 63 17.4 63 17.3 99 99 WNW 3 6 29.97 1015 1 1 0.00 0.00
4:15 am 04:15 Mostly Cloudy with Fog 64 17.7 64 17.6 99 99 Calm 29.97 1015 0 0 0.00 0.00
4:35 am 04:35 Mostly Cloudy with Fog 64 17.8 64 17.7 99 99 Calm 29.97 1015 1 1 0.00 0.00
4:55 am 04:55 Mostly Cloudy with Fog 64 17.7 64 17.6 99 99 Calm 29.97 1015 0 0 0.00 0.00
5:15 am 05:15 Mostly Cloudy with Fog 64 17.6 64 17.5 99 99 Calm 29.97 1015 0 0 0.00 0.00
5:35 am 05:35 Mostly Cloudy with Fog 62 16.9 62 16.8 99 99 Calm 29.97 1015 0 0 0.00 0.00
5:55 am 05:55 Mostly Clear with Fog 63 17.3 63 17.2 99 99 Calm 29.94 1014 1 1 0.00 0.00
6:15 am 06:15 Mostly Cloudy with Fog 62 16.9 62 16.8 99 99 Calm 29.94 1014 5 8 0.00 0.00
6:35 am 06:35 Mostly Cloudy with Fog 62 16.7 62 16.6 99 99 Calm 29.94 1014 5 8 0.00 0.00
6:55 am 06:55 Mostly Cloudy with Fog 62 16.6 62 16.6 100 100 WSW 3 6 29.97 1015 5 8 0.00 0.00
7:15 am 07:15 Mostly Cloudy with Mist and Fog 64 17.6 64 17.5 99 99 WSW 3 6 29.97 1015 1 2 0.01 0.25
7:35 am 07:35 Mostly Cloudy with Mist and Fog 65 18.4 65 18.4 100 100 SW 3 6 29.97 1015 2 3 0.01 0.25
7:55 am 07:55 Sunny with Mist and Fog 67 19.3 67 19.2 99 99 Calm 29.97 1015 3 4 0.01 0.25
8:15 am 08:15 Sunny with Mist and Fog 68 20.2 68 19.9 98 98 Calm 29.97 1015 4 6 0.00 0.00
8:35 am 08:35 Sunny 70 21.2 67 19.5 90 90 SSW 6 9 29.97 1015 7 11 0.00 0.00
8:55 am 08:55 Sunny 72 22 67 19.7 87 87 SSW 7 11 29.97 1015 7 11 0.00 0.00
9:15 am 09:15 Sunny 73 22.8 68 20 84 84 SSW 8 13 29.97 1015 7 11 0.00 0.00
9:35 am 09:35 Sunny 75 24.1 69 20.3 79 79 SW 7 11 30.00 1016 10 16 0.00 0.00
9:55 am 09:55 Sunny 78 25.5 68 20.2 73 73 WSW 9 15 30.00 1016 10 16 0.00 0.00
10:15 am 10:15 Sunny 79 26.3 69 20.5 71 71 WSW 9 15 29.97 1015 10 16 0.00 0.00
10:35 am 10:35 Sunny 81 27 69 20.7 68 68 WSW 6 9 29.97 1015 10 16 0.00 0.00
10:55 am 10:55 Sunny 82 27.7 69 20.7 66 66 W 9 15 29.97 1015 10 16 0.00 0.00
11:15 am 11:15 Sunny 83 28.5 69 20.7 63 63 W 13 20 29.97 1015 10 16 0.00 0.00
11:35 am 11:35 Sunny 84 28.8 70 21.1 63 63 SW 6 9 29.94 1014 10 16 0.00 0.00
11:55 am 11:55 Sunny 85 29.3 69 20.6 59 59 SW 7 11 29.94 1014 10 16 0.00 0.00
12:15 pm 12:15 Mostly Cloudy 84 29.1 69 20.3 59 59 W 8 13 29.97 1015 10 16 0.00 0.00
12:35 pm 12:35 Mostly Cloudy 85 29.4 68 20.2 58 58 WSW 10 17 29.94 1014 10 16 0.00 0.00
12:55 pm 12:55 Mostly Cloudy 80 26.5 66 18.9 63 63 N 18 30 30.00 1016 10 16 0.00 0.00
1:15 pm 13:15 Partly Cloudy 79 26.2 64 17.7 60 60 NNE 16 26 30.00 1016 10 16 0.00 0.00
1:35 pm 13:35 Partly Cloudy 80 26.8 64 17.8 58 58 NNE 14 22 30.00 1016 10 16 0.00 0.00
1:55 pm 13:55 Sunny 82 27.6 65 18.3 57 57 NE 12 19 30.00 1016 10 16 0.00 0.00
2:15 pm 14:15 Sunny 82 27.7 64 17.7 55 55 NNE 13 20 29.97 1015 10 16 0.00 0.00
2:35 pm 14:35 Sunny 83 28.2 65 18.3 55 55 NE 9 15 29.94 1014 10 16 0.00 0.00
2:55 pm 14:55 Sunny 83 28.5 64 17.7 52 52 NE 12 19 29.94 1014 10 16 0.00 0.00
3:15 pm 15:15 Sunny 84 28.7 62 16.8 49 49 NNE 12 19 29.91 1013 10 16 0.00 0.00
3:35 pm 15:35 Sunny 85 29.2 64 17.5 49 49 NE 12 19 29.91 1013 10 16 0.00 0.00
3:55 pm 15:55 Sunny 85 29.2 64 17.5 49 49 ENE 9 15 29.88 1012 10 16 0.00 0.00
4:15 pm 16:15 Sunny 85 29.5 64 17.9 50 50 NE 10 17 29.88 1012 10 16 0.00 0.00
4:35 pm 16:35 Sunny 86 29.9 64 17.7 48 48 Calm 29.85 1011 10 16 0.00 0.00
4:55 pm 16:55 Sunny 86 30 65 18.6 50 50 SSE 7 11 29.85 1011 10 16 0.00 0.00
5:15 pm 17:15 Sunny 86 30.2 66 18.7 50 50 ESE 7 11 29.85 1011 10 16 0.00 0.00
5:35 pm 17:35 Sunny 86 29.9 67 19.2 53 53 SE 8 13 29.85 1011 10 16 0.00 0.00
5:55 pm 17:55 Sunny 86 29.8 67 19.3 53 53 S 10 17 29.85 1011 10 16 0.00 0.00
6:15 pm 18:15 Sunny 86 29.9 67 19.4 53 53 S 9 15 29.83 1010 10 16 0.00 0.00
6:35 pm 18:35 Partly Cloudy 86 29.8 67 19.5 54 54 S 7 11 29.83 1010 10 16 0.00 0.00
6:55 pm 18:55 Partly Cloudy 85 29.5 67 19.5 55 55 SSE 10 17 29.83 1010 10 16 0.00 0.00
7:15 pm 19:15 Sunny 85 29.3 67 19.6 56 56 S 9 15 29.83 1010 10 16 0.00 0.00
7:35 pm 19:35 Sunny 85 29.2 67 19.4 56 56 S 12 19 29.80 1009 10 16 0.00 0.00
7:55 pm 19:55 Sunny 85 29.3 66 18.8 53 53 S 8 13 29.80 1009 10 16 0.00 0.00
8:15 pm 20:15 Sunny 82 27.9 65 18.5 57 57 SSW 9 15 29.80 1009 10 16 0.00 0.00
8:35 pm 20:35 Sunny 81 27.2 63 17.4 55 55 SW 9 15 29.80 1009 10 16 0.00 0.00
8:55 pm 20:55 Clear 82 27.6 62 16.7 51 51 SSW 9 15 29.83 1010 10 16 0.00 0.00
9:15 pm 21:15 Clear 80 26.4 62 16.8 56 56 SW 8 13 29.85 1011 10 16 0.00 0.00
9:35 pm 21:35 Clear 78 25.6 62 16.9 59 59 SW 6 9 29.85 1011 10 16 0.00 0.00
9:55 pm 21:55 Clear 78 25.6 62 16.9 59 59 SW 7 11 29.88 1012 10 16 0.00 0.00
10:15 pm 22:15 Clear 76 24.6 63 17.2 64 64 SW 6 9 29.88 1012 10 16 0.00 0.00
10:35 pm 22:35 Clear 75 24 63 17.4 67 67 SSW 5 7 29.85 1011 10 16 0.00 0.00
10:55 pm 22:55 Clear 73 22.8 64 17.6 73 73 WSW 5 7 29.88 1012 10 16 0.00 0.00
11:15 pm 23:15 Clear 73 22.7 64 17.7 73 73 SW 7 11 29.88 1012 10 16 0.00 0.00
11:35 pm 23:35 Clear 72 22.1 64 17.9 77 77 SW 6 9 29.85 1011 10 16 0.00 0.00
11:55 pm 23:55 Clear 70 21.2 64 18 82 82 SW 5 7 29.85 1011 10 16 0.00 0.00

Powered by AerisWeather